Regional Weather Roundup
Issued by NWS Green Bay, WI

Home | Current Version | Previous Version | Graphics & Text | Print | Product List | Glossary Off
Versions: 1 2 3 4 5 6 7 8 9 10 11 12 13 14 15 16 17 18 19 20 21 22 23 24 25 26 27 28 29 30 31 32 33 34 35 36 37 38 39 40 41 42 43 44 45 46 47 48 49 50

000
ASUS43 KGRB 291611
RWRGRB

NORTH-CENTRAL AND NORTHEAST WISCONSIN REGIONAL WEATHER ROUNDUP
NATIONAL WEATHER SERVICE GREEN BAY WI
1100 AM CDT MON MAY 29 2017

WIZ005-009-010>012-018-019-291700-
NORTH CENTRAL WISCONSIN

CITY           SKY/WX    TMP DP  RH WIND       PRES   REMARKS
IRONWOOD       HVY RAIN  54  51  90 NW7       29.65R
MANITOWISH WTR CLOUDY    55  54  97 W13G22    29.66F
ARBOR VITAE    CLOUDY    55  52  89 W10       29.67S
EAGLE RIVER    CLOUDY    52  49  89 W14       29.67S
LAND O LAKES   CLOUDY    53  49  87 SW8       29.67R
RHINELANDER    CLOUDY    57  50  77 W14       29.69R
PHILLIPS       CLOUDY    53  50  90 SW8G16    29.69S
ANTIGO         CLOUDY    53  49  87 W13G18    29.71R
TOMAHAWK       CLOUDY    53  49  85 SW3       29.70S
MERRILL        CLOUDY    55  50  82 W13       29.71S
$$

WIZ013-073-291700-
NORTHEAST WISCONSIN

CITY           SKY/WX    TMP DP  RH WIND       PRES   REMARKS
IRON MOUNTAIN  CLOUDY    61  47  59 W17       29.63R
MARINETTE      NOT AVBL
OCONTO         PTSUNNY   67  47  49 W12G23    29.66S
$$

WIZ017-030-035>037-045-291700-
CENTRAL WISCONSIN

CITY           SKY/WX    TMP DP  RH WIND       PRES   REMARKS
MEDFORD        CLOUDY    53  51  92 W14       29.73R
WAUSAU         LGT RAIN  56  50  80 W12       29.71S
MOSINEE        LGT RAIN  55  52  88 W12       29.74R
MARSHFIELD     CLOUDY    58  51  78 W14G25    29.74S
WISC RAPIDS    CLOUDY    58  51  78 W13       29.77R
STEVENS POINT  DRIZZLE   51  51  99 W9G17     29.76R
WAUPACA        PTSUNNY   62  51  66 W16G26    29.74S
SHAWANO        CLOUDY    64  50  59 W9G18     29.69S
CLINTONVILLE   CLOUDY    63  46  55 W20G26    29.71R
WAUTOMA        CLOUDY    61  48  62 W22         N/A
$$

WIZ038-039-048-051-291700-
FOX VALLEY

CITY           SKY/WX    TMP DP  RH WIND       PRES   REMARKS
NWS GREEN BAY  MOSUNNY   64  53  67 W20G26    29.69S
APPLETON       PTSUNNY   63  46  55 W15G25    29.71R
OSHKOSH        MOSUNNY   64  48  56 W16G26    29.72R
FOND DU LAC    MOSUNNY   64  46  52 W23G30    29.73R
$$

WIZ022-050-052-291700-
EAST CENTRAL WISCONSIN

CITY           SKY/WX    TMP DP  RH WIND       PRES   REMARKS
EPHRAIM        FAIR     N/A N/A N/A SW12      29.65S
WASHINGTON ISL CLOUDY    60  50  70 SW9       29.64F
STURGEON BAY   SUNNY     64  49  57 W22       29.67S
MANITOWOC      MOSUNNY   64  47  53 W18G28    29.71R
SHEBOYGAN      PTSUNNY   66  50  56 W25G33    29.72R
$$

LMZ563-521-522-541>543-291700-
LAKESHORE

STATION/POSITION TIME  TEMP    WIND        PRES    VSBY  WAVE
                       AIR SEA DIR/SP/G                  HT/PER
                 (UTC) (F)     (DEG/KT/KT) (MB)    (MI)  (FT/S)
SHEBOYGAN LKSHOR 1600   64     260/ 19/ 24 1006.0R
KEWAUNEE LKSHORE 1548   64     260/ 13/ 19 1004.9R
NORTHPORT PIER   1540   63     240/  6/ 13 1004.1S
N MID LAKE BUOY  1550   45 41  200/  8/ 10 1005.1R         1/ 4
CHAMBERS ISLAND  1540   62     210/  7/ 10 1003.7S
MENOMINEE LKSHOR 1548          250/ 10/ 20 1003.3F
$$




USA.gov is the U.S. government's official web portal to all federal, state and local government web resources and services.